Temp
10 10 10 11 11 11 12 11 12 12 12 11 11 12 12 12 12 12 12 12 12 12
10 10 10 11 11 11 10 10 10 10 10 11 11 12 12 12 12 12 12 12 11 12
10 10 10 10 10 11 10 10 10 11 11 11 11 11 11 11 11 11 10 10 10 10
10 10 10 9 9 10 9 10 10 10 10 10 10 10 10 10 10 10 10 10 10 10
10 9 9 9 9 10 10 10 10 10 10 10 10 10 10 10 10 10 10 10 9 9
10 9 9 9 9 9 10 9 9 9 10 9 9 9 9 9 9 9 9 9 8 8
9 9 9 9 9 9 9 9 8 9 9 9 9 8 8 8 8 8 8 7 8 7
10 9 9 9 9 9 9 9 9 9 9 8 8 8 8 8 8 7 7 7 6 6
9 9 9 9 9 9 9 9 9 8 8 8 8 8 8 8 8 7 7 6 6 6
9 9 9 9 9 8 8 8 8 8 8 8 8 8 8 7 7 7 6 6 6 6
9 8 8 8 8 8 8 8 8 8 8 7 7 7 7 6 6 6 6 6 6 6
8 8 8 8 7 7 6 6 6 6 6 6 6 6 6 5 6 5 5 5 5 5
8 8 7 7 6 6 6 5 5 5 5 5 5 5 5 5 5 5 4 4 4 4
7 7 6 6 6 6 5 4 4 4 4 4 5 4 4 5 5 4 4 4 4 4
Height
755 757 756 755 761 767 769 774 775 777 780 786 786 791 795 800 803 809 811 813 816 817
751 752 754 755 760 762 768 772 774 776 781 784 786 790 793 797 801 806 810 812 814 817
743 745 753 755 759 762 763 772 774 777 782 785 787 790 793 796 801 806 810 811 812 815
740 743 748 754 760 763 768 771 774 776 782 783 786 790 793 796 799 803 807 809 810 812
738 743 746 751 756 760 764 768 772 776 780 784 786 788 791 795 798 801 803 806 810 811
740 744 748 748 752 755 759 763 769 773 776 780 785 788 790 791 797 798 800 801 806 808
742 744 747 748 748 753 758 762 765 767 772 777 780 785 788 789 792 793 795 800 801 805
739 742 743 745 749 754 756 759 762 765 770 774 778 781 783 785 789 791 792 797 800 802
739 741 744 747 749 751 753 758 761 765 769 773 776 777 781 783 785 789 791 794 797 800
740 743 746 748 749 749 755 758 761 765 768 772 773 774 778 781 783 785 788 793 797 798
741 744 748 748 753 755 757 760 761 764 767 768 771 775 776 779 781 784 788 792 796 797
748 752 751 753 757 757 757 761 760 762 766 769 771 774 777 781 783 786 788 791 794 799
751 751 753 755 758 757 761 765 763 766 769 772 773 777 780 782 785 787 789 790 792 796
750 751 753 755 756 759 763 765 766 769 772 773 775 779 783 785 786 789 791 792 794 795
Wind_Speed
16 14 16 20 15 16 15 15 18 19 17 17 18 19 19 19 18 17 15 13 13 10
22 15 11 17 17 17 13 13 13 15 14 16 16 17 18 17 17 17 16 15 13 9
22 16 15 13 13 14 11 10 12 13 11 12 12 13 13 12 11 11 10 12 11 10
16 16 18 19 16 15 14 14 15 14 12 16 14 13 14 13 15 15 14 12 12 10
11 13 16 22 24 22 17 15 13 14 13 11 11 13 14 14 13 14 13 11 11 10
12 16 17 17 15 17 18 21 28 23 20 17 17 21 18 16 18 16 15 15 16 14
14 17 16 14 13 16 18 20 24 23 21 23 22 22 22 20 20 20 18 18 17 16
8 8 9 12 14 17 18 19 21 22 23 22 23 23 21 21 22 20 20 20 16 14
4 4 6 8 10 12 13 15 17 20 22 21 22 20 20 21 23 23 21 17 14 14
8 7 6 6 5 6 8 13 15 16 17 19 16 16 19 19 19 18 15 14 15 14
7 6 5 5 4 5 7 9 12 12 12 12 11 12 12 11 11 11 12 11 11 11
8 8 8 9 7 6 6 7 7 7 7 8 8 7 8 10 10 11 11 11 10 10
7 9 10 10 9 11 10 10 12 12 10 8 8 7 8 7 8 9 9 8 9 9
8 9 9 10 11 11 12 13 13 16 15 13 11 10 8 8 8 7 6 6 7 8
Wind_Direction
193 192 188 179 180 182 181 195 194 198 197 188 195 194 197 198 199 206 205 193 194 186
214 197 178 177 179 177 184 191 191 183 187 195 195 193 195 193 199 202 200 192 191 181
220 206 205 179 165 169 165 178 188 188 188 192 185 189 186 182 184 179 185 187 178 170
217 215 217 205 187 175 169 167 175 166 172 176 183 174 182 184 185 182 190 185 185 189
206 218 215 217 217 208 199 191 182 183 185 191 189 194 196 195 196 189 187 188 197 206
202 215 207 210 215 212 216 226 218 219 218 223 235 237 217 204 209 210 213 214 220 228
194 197 205 203 202 213 213 219 219 216 219 227 228 221 212 210 218 216 221 227 231 228
198 204 204 207 207 210 211 213 211 212 214 209 212 213 219 223 225 225 220 228 215 208
157 182 192 203 213 219 223 222 215 211 208 217 217 218 225 222 224 224 215 205 208 211
104 109 126 145 168 172 205 212 208 207 209 210 206 210 221 224 214 203 195 202 203 201
85 91 103 98 105 140 172 187 191 202 207 209 214 219 203 191 191 189 190 194 191 197
122 131 122 116 119 112 117 125 130 139 156 164 160 169 170 174 170 167 164 169 172 176
117 125 127 126 117 105 116 124 119 115 113 120 130 136 150 159 161 149 154 156 168 177
91 97 107 108 107 107 105 101 101 107 108 110 119 125 142 143 141 159 169 187 192 217